Details for Norwegian Air International at GCTS




Go Back


Latest METAR
Local Time

GCTS 221100Z 10014KT CAVOK 26/18 Q1019 NOSIG
22/09/2018, 12:15:41

Description
Results
Norwegian Air International Logo
Number of Pilots based at GCTS
0 Pilots Based here
Number of Norwegian Air International Flights Departed from GCTS
1 Flights Departed
Number of Norwegian Air International Flights Arrived at GCTS
1 Flights Arrived
Number of Norwegian Air International Schedules Departing from GCTS
21 Schedules
Number of Norwegian Air International Schedules Arriving at GCTS
20 Schedules
Number of Norwegian Air International Schedules Departing from GCTS availible today
5 Schedules Today
Number of Norwegian Air International Schedules Arriving at GCTS availible today
5 Schedules Today
Average Landing Rate at GCTS
-218 fpm
Norwegian Air International Average Landing Rate at GCTS
-116 fpm
Total Fuel Purchased at GCTS by Norwegian Air International
15,708.81 kgs / 34,631.64 lbs

Pilots Based at GCTS


Pilot ID
Pilot Name
Pilot Rank
No. of Flights
No. of Flying Hours
There are no pilots assigned to this hub!   Will you be the first?
Content